Location: Maiden
(35.5760°N, 81.2120°W)
Time: 01:46:11
(UTC-04:00)

ISS - Visible Passes

Search period start: 01 August 2014 00:00
Search period end: 11 August 2014 00:00
Orbit: 411 x 419 km, 51.6° (Epoch: 31 July)

Date Brightness Start Highest point End Pass type
(mag) Time Alt. Az. Time Alt. Az. Time Alt. Az.
01 Aug 0.0 04:34:21 10° N 04:36:14 14° NNE 04:38:06 10° ENE visible
01 Aug -1.5 21:15:08 10° SSE 21:16:57 14° SE 21:17:03 14° SE visible
01 Aug -0.3 22:50:08 10° WSW 22:50:14 11° WSW 22:50:14 11° WSW visible
02 Aug 0.4 03:46:59 10° NNE 03:47:07 10° NNE 03:47:15 10° NNE visible
02 Aug -2.3 05:21:11 10° NW 05:24:29 51° NE 05:27:45 10° ESE visible
02 Aug -3.4 22:01:10 10° SW 22:04:29 89° NW 22:07:49 10° NE visible
02 Aug 0.1 23:39:56 10° NW 23:41:08 13° NW 23:41:08 13° NW visible
03 Aug -1.2 04:32:33 10° NNW 04:35:33 29° NE 04:38:32 10° E visible
03 Aug -3.0 21:12:30 10° SSW 21:15:40 45° SE 21:18:52 10° ENE visible
03 Aug -0.4 22:50:04 10° WNW 22:52:32 19° NNW 22:55:01 10° NNE visible
04 Aug -0.5 03:46:03 18° NNE 03:46:32 19° NNE 03:49:01 10° ENE visible
04 Aug -3.0 05:20:11 10° WNW 05:23:25 46° SW 05:26:38 10° SSE visible
04 Aug -1.2 22:00:34 10° W 22:03:32 29° NW 22:06:31 10° NNE visible
05 Aug -1.0 04:37:07 17° SE 04:37:07 17° SE 04:37:57 10° SE visible
05 Aug -2.4 21:11:20 10° WSW 21:14:35 52° NW 21:17:51 10° NE visible
06 Aug -0.1 22:00:55 10° WNW 22:02:46 14° NNW 22:04:38 10° N visible
07 Aug -0.5 21:11:06 10° W 21:13:41 21° NNW 21:16:16 10° NNE visible
09 Aug 0.1 21:12:09 10° NW 21:12:59 11° NNW 21:13:48 10° N visible
